Weather observations for the past three days for
Montauk, Montauk Airport
Imperial (Metric)
Date Time (edt) Wind (mph) Vis. (mi.) Weather Sky Cond. Temperature (ºF) Relative Humidity Wind Chill (°F) Heat Index (°F) Pressure Precipitation (in)
Air Dwpt 6 hour altimeter (in) sea level (mb) 1 hr 3 hr 6 hr
Max. Min.
21 07:54 Calm 0.00 NULL NULL 75 68 77 73 79% 76 30.03 1016.8
21 06:54 Calm 0.00 NULL NULL 75 68 79% 76 30.03 1016.8
21 05:54 Calm 0.00 NULL NULL 75 68 79% 76 30.02 1016.6
21 04:54 Calm 0.00 NULL NULL 75 66.9 76% 76 30.02 1016.6
21 03:54 SW 3 0.00 NULL NULL 75.9 66.9 74% 77 30.02 1016.4
21 02:54 SW 6 0.00 NULL NULL 75.9 66 72% 77 30.02 1016.7
21 01:54 SW 7 0.00 NULL NULL 77 66.9 77 75.9 71% 79 30.03 1017.0
21 00:54 SW 8 0.00 NULL NULL 77 68 74% 79 30.04 1017.1
20 23:54 SW 8 0.00 NULL NULL 77 66.9 71% 79 30.05 1017.4
20 22:54 SW 7 0.00 NULL NULL 77 66.9 71% 79 30.05 1017.6
20 21:54 SW 7 0.00 NULL NULL 77 66.9 71% 79 30.07 1018.1
20 20:54 SW 8 0.00 NULL NULL 77 66 69% 79 30.06 1017.9
20 19:54 SW 8 0.00 NULL NULL 77 66.9 82 77 71% 79 30.06 1017.9
20 18:54 Vrbl 6 0.00 NULL NULL 79 68 69% 81 30.06 1018.0
20 17:54 SW 9 0.00 NULL NULL 79 69.1 72% 82 30.07 1018.0
20 16:54 SW 8 0.00 NULL NULL 79 68 69% 81 30.07 1018.2
20 15:54 SW 8 0.00 NULL NULL 82 68 63% 85 30.07 1018.2
20 14:54 Vrbl 6 0.00 NULL NULL 80.1 66.9 64% 82 30.09 1018.7
20 13:54 Vrbl 6 0.00 NULL NULL 82 68 82 75.9 63% 85 30.1 1019.3
20 12:54 Vrbl 6 0.00 NULL NULL 81 66.9 62% 83 30.12 1019.7
20 11:54 SW 6 0.00 NULL NULL 80.1 69.1 69% 83 30.12 1019.9
20 10:54 Vrbl 5 0.00 NULL NULL 80.1 69.1 69% 83 30.13 1020.1
20 09:54 Vrbl 5 0.00 NULL NULL 80.1 68 67% 83 30.13 1020.2
20 08:54 Vrbl 6 0.00 NULL NULL 78.1 66 67% 80 30.13 1020.4
20 07:54 SW 6 0.00 NULL NULL 75.9 66 75.9 69.1 72% 77 30.14 1020.5
20 06:54 SW 3 0.00 NULL NULL 73.9 66 76% 30.14 1020.5
20 05:54 Calm 0.00 NULL NULL 71.1 64 79% 30.13 1020.3
20 04:54 Calm 0.00 NULL NULL 72 63 73% 30.13 1020.1
20 03:54 W 3 0.00 NULL NULL 73 64 74% 30.12 1020.0
20 02:54 W 5 0.00 NULL NULL 73 64.9 76% 30.13 1020.1
20 01:54 SW 6 0.00 NULL NULL 73 64.9 75 72 76% 30.13 1020.3
20 00:54 Vrbl 6 0.00 NULL NULL 73 64 74% 30.14 1020.4
19 23:54 Vrbl 6 0.00 NULL NULL 73 62.1 69% 30.14 1020.5
19 22:54 SW 6 0.00 NULL NULL 73 63 71% 30.13 1020.1
19 21:54 Vrbl 3 0.00 NULL NULL 73 61 66% 30.13 1020.3
19 20:54 Vrbl 3 0.00 NULL NULL 73.9 62.1 67% 30.13 1020.1
19 19:54 SW 3 0.00 NULL NULL 75 63 82.9 75 66% 77 30.11 1019.7
19 18:54 Vrbl 5 0.00 NULL NULL 78.1 61 56% 80 30.1 1019.2
19 17:54 Vrbl 5 0.00 NULL NULL 79 64 60% 81 30.09 1019.0
19 16:54 SW 5 0.00 NULL NULL 81 63 54% 82 30.1 1019.1
19 15:54 Vrbl 3 0.00 NULL NULL 82 64 55% 84 30.1 1019.2
19 14:54 W 7 0.00 NULL NULL 82 59 46% 82 30.1 1019.3
19 13:54 Vrbl 6 0.00 NULL NULL 80.1 61 81 70 52% 81 30.11 1019.5
19 12:54 NW 6 0.00 NULL NULL 79 57 47% 80 30.11 1019.6
19 11:54 Vrbl 3 0.00 NULL NULL 77 57.9 52% 79 30.11 1019.6
19 10:54 Vrbl 3 0.00 NULL NULL 77 60.1 56% 79 30.11 1019.6
19 09:54 NW 5 0.00 NULL NULL 73.9 60.1 62% 30.1 1019.3
19 08:54 Vrbl 3 0.00 NULL NULL 72 60.1 66% 30.1 1019.3
19 07:54 N 6 0.00 NULL NULL 71.1 60.1 73.9 69.1 68% 30.09 1019.0
19 06:54 N 5 0.00 NULL NULL 70 60.1 71% 30.07 1018.1
19 05:54 NW 7 0.00 NULL NULL 70 59 68% 30.05 1017.4
19 04:54 NW 3 0.00 NULL NULL 70 59 68% 30.02 1016.5
19 03:54 Calm 0.00 NULL NULL 71.1 60.1 68% 30.01 1016.1
19 02:54 NW 5 0.00 NULL NULL 72 61 68% 30 1015.9
19 01:54 NW 6 0.00 NULL NULL 73.9 61 81 73.9 64% 30 1015.8
19 00:54 NW 5 0.00 NULL NULL 75 63 66% 77 29.99 1015.4
18 23:54 Calm 0.00 NULL NULL 75.9 64 67% 78 29.98 1015.2
18 22:54 NW 3 0.00 NULL NULL 77 64 64% 79 29.98 1015.1
18 21:54 NW 3 0.00 NULL NULL 78.1 66.9 69% 80 29.97 1014.8
18 20:54 Vrbl 3 0.00 NULL NULL 79 66.9 67% 81 29.95 1014.2
18 19:54 Calm 0.00 NULL NULL 81 68 86 80.1 65% 84 29.93 1013.3
18 18:54 W 5 0.00 NULL NULL 81 66.9 62% 83 29.9 1012.4
18 17:54 W 6 0.00 NULL NULL 84.9 64.9 51% 87 29.89 1012.1
18 16:54 W 5 0.00 NULL NULL 86 66.9 53% 89 29.89 1012.0
18 15:54 W 6 0.00 NULL NULL 84 66 55% 86 29.89 1012.2
18 14:54 NW 7 0.00 NULL NULL 84 66 55% 86 29.9 1012.4
18 13:54 W 7 0.00 NULL NULL 84 68 84.9 77 59% 87 29.89 1012.1
18 12:54 W 5 0.00 NULL NULL 80.1 69.1 69% 83 29.89 1012.1
18 11:54 NW 8 0.00 NULL NULL 79 68 69% 81 29.88 1011.8
18 10:54 NW 7 0.00 NULL NULL 79 71.1 77% 82 29.87 1011.5
18 09:54 W 6 0.00 NULL NULL 79 72 79% 82 29.86 1011.1
18 08:54 W 7 0.00 NULL NULL 78.1 72 82% 80 29.85 1010.9
Date Time (edt) Wind (mph) Vis. (mi.) Weather Sky Cond. Air Dwpt Max. Min. Relative Humidity Wind Chill (°F) Heat Index (°F) altimeter (in) sea level (mb) 1 hr 3 hr 6 hr
6 hour
Temperature (ºF) Pressure Precipitation (in)